Location: Milo
(50.5667°N, 112.8833°W)
Time: 07:33:40
(UTC+00:00)

N. Korean satellite - Pass Details

Date: 11 December 2021
Orbit: 446 x 491 km, 97.3° (Epoch: 18 January)

Event Time Altitude Azimuth Distance (km) Brightness Sun altitude
Rises 12:22:02 0° 21° (NNE) 2,463 10.4 -27.4°
Reaches altitude 10° 12:24:13 10° 31° (NNE) 1,585 9.4 -27.1°
Enters shadow 12:24:49 14° 36° (NE) 1,360 9.1 -27.0°
Exits shadow 12:29:16 18° 151° (SSE) 1,170 8.8 -26.3°
Drops below altitude 10° 12:30:24 10° 163° (SSE) 1,578 9.4 -26.1°
Sets 12:32:33 0° 173° (S) 2,449 10.3 -25.8°
